Hourly Weather Barra do Corda

Today, 8 May, Saturday

Time Temperature Precipitation Wind Pressure Humidity
00:00 +23°C° 0 mm 0 mps 750 mmHg 96%
01:00 +22°C° 0 mm 0 mps 750 mmHg 96%
02:00 +22°C° 0 mm 0 mps 750 mmHg 97%
03:00 +22°C° 0 mm 0 mps 749 mmHg 97%
04:00 +22°C° 0.1 mm 0 mps 750 mmHg 97%
05:00 +24°C° 0.1 mm 1 mps 750 mmHg 98%
06:00 +24°C° 0.1 mm 1 mps 751 mmHg 98%
07:00 +25°C° 0.3 mm 1 mps 751 mmHg 94%
08:00 +26°C° 0.3 mm 1 mps 751 mmHg 90%
09:00 +28°C° 0.3 mm 2 mps 752 mmHg 87%
10:00 +29°C° 0.9 mm 2 mps 751 mmHg 85%
11:00 +29°C° 0.9 mm 2 mps 751 mmHg 83%
12:00 +30°C° 0.9 mm 2 mps 751 mmHg 81%
13:00 +30°C° 0.9 mm 2 mps 750 mmHg 82%
14:00 +30°C° 0.9 mm 2 mps 749 mmHg 83%
15:00 +30°C° 0.9 mm 1 mps 749 mmHg 84%
16:00 +29°C° 0.6 mm 1 mps 749 mmHg 87%
17:00 +28°C° 0.6 mm 1 mps 749 mmHg 90%
18:00 +24°C° 0.6 mm 0 mps 749 mmHg 93%
19:00 +24°C° 0 mm 0 mps 749 mmHg 94%
20:00 +24°C° 0 mm 0 mps 750 mmHg 95%
21:00 +23°C° 0 mm 0 mps 750 mmHg 95%
22:00 +25°C° 0 mm 1 mps 750 mmHg 96%
23:00 +25°C° 0 mm 1 mps 750 mmHg 96%

Tomorrow, 9 May, Sunday

Time Temperature Precipitation Wind Pressure Humidity
00:00 +25°C° 0 mm 1 mps 750 mmHg 97%
01:00 +24°C° 0.6 mm 1 mps 750 mmHg 97%
02:00 +24°C° 0.6 mm 1 mps 750 mmHg 98%
03:00 +24°C° 0.6 mm 1 mps 749 mmHg 98%
04:00 +22°C° 0.3 mm 0 mps 750 mmHg 98%
05:00 +22°C° 0.3 mm 0 mps 750 mmHg 98%
06:00 +21°C° 0.3 mm 0 mps 750 mmHg 98%
07:00 +25°C° 0 mm 1 mps 751 mmHg 94%
08:00 +26°C° 0 mm 1 mps 751 mmHg 90%
09:00 +28°C° 0 mm 1 mps 752 mmHg 86%
10:00 +29°C° 0.3 mm 2 mps 751 mmHg 79%
11:00 +30°C° 0.3 mm 2 mps 751 mmHg 71%
12:00 +33°C° 0.3 mm 3 mps 750 mmHg 64%
13:00 +33°C° 0 mm 3 mps 749 mmHg 63%
14:00 +33°C° 0 mm 3 mps 749 mmHg 62%
15:00 +34°C° 0 mm 2 mps 748 mmHg 61%
16:00 +31°C° 0 mm 2 mps 748 mmHg 68%
17:00 +29°C° 0 mm 1 mps 748 mmHg 74%
18:00 +27°C° 0 mm 1 mps 748 mmHg 81%
19:00 +27°C° 0 mm 1 mps 749 mmHg 81%
20:00 +24°C° 0 mm 0 mps 749 mmHg 81%
21:00 +24°C° 0 mm 0 mps 750 mmHg 82%
22:00 +23°C° 0 mm 0 mps 750 mmHg 83%
23:00 +23°C° 0 mm 0 mps 750 mmHg 84%

Day after tomorrow, 10 May, Monday

Time Temperature Precipitation Wind Pressure Humidity
00:00 +23°C° 0 mm 0 mps 750 mmHg 84%
01:00 +22°C° 0 mm 0 mps 750 mmHg 86%
02:00 +22°C° 0 mm 0 mps 749 mmHg 88%
03:00 +24°C° 0 mm 1 mps 749 mmHg 91%
04:00 +24°C° 0 mm 1 mps 749 mmHg 91%
05:00 +21°C° 0 mm 0 mps 749 mmHg 92%
06:00 +21°C° 0 mm 0 mps 750 mmHg 92%
07:00 +25°C° 0 mm 1 mps 750 mmHg 85%
08:00 +27°C° 0 mm 2 mps 751 mmHg 78%
09:00 +29°C° 0 mm 2 mps 751 mmHg 70%
10:00 +30°C° 0 mm 3 mps 751 mmHg 65%
11:00 +31°C° 0 mm 3 mps 750 mmHg 61%
12:00 +33°C° 0 mm 3 mps 750 mmHg 56%
13:00 +32°C° 0 mm 2 mps 749 mmHg 62%
14:00 +31°C° 0 mm 2 mps 748 mmHg 69%
15:00 +30°C° 0 mm 1 mps 748 mmHg 75%
16:00 +29°C° 0 mm 1 mps 748 mmHg 76%
17:00 +27°C° 0 mm 0 mps 748 mmHg 77%
18:00 +26°C° 0 mm 0 mps 748 mmHg 78%
19:00 +28°C° 0 mm 1 mps 749 mmHg 77%
20:00 +28°C° 0 mm 1 mps 749 mmHg 76%
21:00 +28°C° 0 mm 1 mps 749 mmHg 74%
22:00 +27°C° 0 mm 1 mps 749 mmHg 76%
23:00 +27°C° 0 mm 1 mps 749 mmHg 78%

11 May, Tuesday

Time Temperature Precipitation Wind Pressure Humidity
00:00 +26°C° 0 mm 1 mps 749 mmHg 79%
01:00 +24°C° 0 mm 0 mps 749 mmHg 80%
02:00 +24°C° 0 mm 0 mps 749 mmHg 81%
03:00 +23°C° 0 mm 0 mps 748 mmHg 82%
04:00 +23°C° 0 mm 0 mps 749 mmHg 83%
05:00 +22°C° 0 mm 0 mps 749 mmHg 85%
06:00 +24°C° 0 mm 1 mps 749 mmHg 86%
07:00 +25°C° 0 mm 1 mps 750 mmHg 80%
08:00 +27°C° 0 mm 2 mps 750 mmHg 74%
09:00 +29°C° 0 mm 3 mps 751 mmHg 68%
10:00 +30°C° 0 mm 3 mps 750 mmHg 64%
11:00 +31°C° 0 mm 3 mps 750 mmHg 61%
12:00 +33°C° 0 mm 3 mps 749 mmHg 58%
13:00 +33°C° 0.2 mm 3 mps 749 mmHg 62%
14:00 +31°C° 0.2 mm 3 mps 748 mmHg 67%
15:00 +31°C° 0.2 mm 2 mps 748 mmHg 71%
16:00 +29°C° 0.2 mm 2 mps 748 mmHg 76%
17:00 +28°C° 0.2 mm 2 mps 748 mmHg 80%
18:00 +26°C° 0.2 mm 1 mps 748 mmHg 85%
19:00 +26°C° 0 mm 1 mps 749 mmHg 86%
20:00 +26°C° 0 mm 1 mps 749 mmHg 87%
21:00 +25°C° 0 mm 1 mps 750 mmHg 88%
22:00 +25°C° 0 mm 1 mps 749 mmHg 88%
23:00 +23°C° 0 mm 0 mps 749 mmHg 87%

12 May, Wednesday

Time Temperature Precipitation Wind Pressure Humidity
00:00 +23°C° 0 mm 0 mps 749 mmHg 87%
01:00 +23°C° 0 mm 0 mps 749 mmHg 85%
02:00 +23°C° 0 mm 0 mps 749 mmHg 84%
03:00 +23°C° 0 mm 0 mps 748 mmHg 83%
04:00 +22°C° 0 mm 0 mps 749 mmHg 84%
05:00 +24°C° 0 mm 1 mps 749 mmHg 85%
06:00 +23°C° 0 mm 1 mps 749 mmHg 86%
07:00 +25°C° 0 mm 1 mps 750 mmHg 79%
08:00 +27°C° 0 mm 2 mps 750 mmHg 73%
09:00 +29°C° 0 mm 3 mps 751 mmHg 66%
10:00 +30°C° 0 mm 3 mps 750 mmHg 63%
11:00 +31°C° 0 mm 3 mps 750 mmHg 59%
12:00 +33°C° 0 mm 3 mps 750 mmHg 56%
13:00 +32°C° 0 mm 2 mps 749 mmHg 61%
14:00 +31°C° 0 mm 2 mps 749 mmHg 66%
15:00 +31°C° 0 mm 1 mps 748 mmHg 71%
16:00 +30°C° 0.1 mm 1 mps 748 mmHg 74%
17:00 +29°C° 0.1 mm 1 mps 748 mmHg 78%
18:00 +28°C° 0.1 mm 1 mps 748 mmHg 81%
19:00 +27°C° 0 mm 1 mps 749 mmHg 81%
20:00 +27°C° 0 mm 1 mps 749 mmHg 81%
21:00 +27°C° 0 mm 1 mps 749 mmHg 80%
22:00 +27°C° 0 mm 1 mps 749 mmHg 80%
23:00 +27°C° 0 mm 1 mps 749 mmHg 81%

13 May, Thursday

Time Temperature Precipitation Wind Pressure Humidity
00:00 +24°C° 0 mm 0 mps 749 mmHg 81%
01:00 +24°C° 0 mm 0 mps 749 mmHg 83%
02:00 +24°C° 0 mm 0 mps 749 mmHg 84%
03:00 +23°C° 0 mm 0 mps 748 mmHg 86%
04:00 +23°C° 0 mm 0 mps 749 mmHg 88%
05:00 +22°C° 0 mm 0 mps 749 mmHg 89%
06:00 +22°C° 0 mm 0 mps 749 mmHg 91%
07:00 +24°C° 0 mm 0 mps 750 mmHg 85%
08:00 +27°C° 0 mm 1 mps 750 mmHg 79%
09:00 +29°C° 0 mm 1 mps 751 mmHg 73%
10:00 +30°C° 0 mm 1 mps 750 mmHg 68%
11:00 +32°C° 0 mm 2 mps 750 mmHg 63%
12:00 +34°C° 0 mm 2 mps 749 mmHg 57%
13:00 +34°C° 0 mm 2 mps 749 mmHg 59%
14:00 +34°C° 0 mm 2 mps 748 mmHg 60%
15:00 +34°C° 0 mm 2 mps 748 mmHg 61%
16:00 +31°C° 0.1 mm 1 mps 748 mmHg 67%
17:00 +30°C° 0.1 mm 1 mps 748 mmHg 73%
18:00 +27°C° 0.1 mm 0 mps 748 mmHg 79%
19:00 +28°C° 0 mm 1 mps 748 mmHg 79%
20:00 +28°C° 0 mm 1 mps 749 mmHg 79%
21:00 +27°C° 0 mm 1 mps 749 mmHg 80%
22:00 +27°C° 0 mm 1 mps 749 mmHg 83%
23:00 +26°C° 0 mm 1 mps 749 mmHg 86%
Show more